Weslaco, TX

12:15 PM CDT on July 23, 2017 (GMT -0500)
Weslaco

Weather History for KT65 - November, 2012

Change the Weather History Date:

Wednesday, November 21, 2012

  Actual Average (KMFE) Record (KMFE)
Temperature  
Mean Temperature 68 °F -  
Max Temperature 78 °F 75 °F 93 °F (2007)
Min Temperature 57 °F 56 °F 33 °F (1969)
Cooling Degree Days 2    
Growing Degree Days 18 (Base 50)    
Moisture  
Dew Point 57 °F    
Average Humidity 71    
Maximum Humidity 94    
Minimum Humidity 42    
Precipitation  
Precipitation 0.00 in - - ()
Sea Level Pressure  
Sea Level Pressure 30.19 in    
Wind  
Wind Speed 2 mph (East)    
Max Wind Speed 14 mph    
Max Gust Speed 18 mph    
Visibility 9 miles    
Events      
Averages and records for this station are not official NWS values.
T = Trace of Precipitation, MM = Missing Value Source: NWS Daily Summary

Daily Weather History Graph

Daily Weather History Graph

Search for Another Location

Airport or City:

Trip Planner

Search our weather history database for the weather conditions in past years. The results will help you decide how hot, cold, wet, or windy it might be!

Date:

Astronomy

Nov. 21, 2012 Rise Set
Actual Time 6:55 AM CST 5:40 PM CST
Civil Twilight 6:30 AM CST 6:05 PM CST
Nautical Twilight 6:02 AM CST 6:33 PM CST
Astronomical Twilight 5:34 AM CST 7:00 PM CST
Moon 1:25 PM CST (11/21) 12:50 AM CST (11/21)
Length of Visible Light 11h 34m
Length of Day
10h 45m
First Quarter, 62% of the Moon is Illuminated
Nov 21
First Quarter
Nov 28
Full
Dec 6
Last Quarter
Dec 13
New
Dec 19
First Quarter

Hourly Weather History & Observations

Time (CST) Temp. Dew Point Humidity Pressure Visibility Wind Dir Wind Speed Gust Speed Precip Events Conditions
12:15 AM 66.2 °F 59.0 °F 78% 30.18 in 10.0 mi Calm Calm - N/A   Unknown
12:35 AM 64.4 °F 59.0 °F 83% 30.18 in 10.0 mi Calm Calm - N/A   Unknown
12:55 AM 62.6 °F 59.0 °F 88% 30.17 in 10.0 mi Calm Calm - N/A   Unknown
1:15 AM 62.6 °F 59.0 °F 88% 30.17 in 10.0 mi Calm Calm - N/A   Unknown
1:35 AM 60.8 °F 59.0 °F 94% 30.17 in 10.0 mi Calm Calm - N/A   Unknown
1:55 AM 60.8 °F 59.0 °F 94% 30.17 in 10.0 mi Calm Calm - N/A   Unknown
2:15 AM 60.8 °F 57.2 °F 88% 30.17 in 10.0 mi Calm Calm - N/A   Unknown
2:35 AM 62.6 °F 59.0 °F 88% 30.18 in 10.0 mi Calm Calm - N/A   Unknown
2:55 AM 60.8 °F 57.2 °F 88% 30.17 in 10.0 mi Calm Calm - N/A   Unknown
3:15 AM 60.8 °F 57.2 °F 88% 30.17 in 10.0 mi Calm Calm - N/A   Unknown
3:35 AM 60.8 °F 57.2 °F 88% 30.17 in 10.0 mi Calm Calm - N/A   Unknown
3:55 AM 59.0 °F 57.2 °F 94% 30.17 in 10.0 mi Calm Calm - N/A   Unknown
4:15 AM 59.0 °F 55.4 °F 88% 30.17 in 5.0 mi Calm Calm - N/A   Mist
4:35 AM 59.0 °F 55.4 °F 88% 30.18 in 4.0 mi Calm Calm - N/A   Mist
4:55 AM 59.0 °F 55.4 °F 88% 30.18 in 5.0 mi Calm Calm - N/A   Mist
5:15 AM 59.0 °F 55.4 °F 88% 30.18 in 2.0 mi Calm Calm - N/A   Mist
5:35 AM 57.2 °F 55.4 °F 94% 30.18 in 3.0 mi North 3.5 mph - N/A   Mist
6:15 AM 57.2 °F 55.4 °F 94% 30.19 in 4.0 mi Calm Calm - N/A   Mist
6:35 AM 57.2 °F 55.4 °F 94% 30.20 in 7.0 mi Calm Calm - N/A   Unknown
6:55 AM 57.2 °F 55.4 °F 94% 30.20 in 2.5 mi Calm Calm - N/A   Mist
7:15 AM 57.2 °F 55.4 °F 94% 30.21 in 0.8 mi Calm Calm - N/A   Mist
7:35 AM 59.0 °F 55.4 °F 88% 30.21 in 2.0 mi Calm Calm - N/A   Mist
7:55 AM 60.8 °F 59.0 °F 94% 30.22 in 3.0 mi Calm Calm - N/A   Mist
8:15 AM 62.6 °F 59.0 °F 88% 30.23 in 7.0 mi Calm Calm - N/A   Unknown
8:35 AM 66.2 °F 60.8 °F 83% 30.24 in 10.0 mi Calm Calm - N/A   Unknown
8:55 AM 69.8 °F 60.8 °F 73% 30.24 in 10.0 mi Calm Calm - N/A   Unknown
9:15 AM 69.8 °F 62.6 °F 78% 30.24 in 10.0 mi Calm Calm - N/A   Unknown
9:35 AM 71.6 °F 60.8 °F 69% 30.24 in 10.0 mi Calm Calm - N/A   Unknown
9:55 AM 75.2 °F 60.8 °F 61% 30.25 in 10.0 mi East 4.6 mph - N/A   Unknown
10:15 AM 75.2 °F 60.8 °F 61% 30.24 in 10.0 mi East 5.8 mph - N/A   Unknown
10:35 AM 75.2 °F 60.8 °F 61% 30.24 in 10.0 mi ESE 6.9 mph - N/A   Unknown
10:55 AM 77.0 °F 60.8 °F 57% 30.24 in 10.0 mi ESE 6.9 mph - N/A   Unknown
11:15 AM 77.0 °F 59.0 °F 54% 30.23 in 10.0 mi ESE 3.5 mph - N/A   Unknown
11:35 AM 77.0 °F 59.0 °F 54% 30.22 in 10.0 mi ESE 5.8 mph - N/A   Unknown
11:55 AM 77.0 °F 57.2 °F 50% 30.21 in 10.0 mi East 8.1 mph - N/A   Unknown
12:15 PM 77.0 °F 57.2 °F 50% 30.21 in 10.0 mi East 6.9 mph - N/A   Unknown
12:35 PM 77.0 °F 57.2 °F 50% 30.19 in 10.0 mi ENE 6.9 mph - N/A   Unknown
12:55 PM 78.8 °F 55.4 °F 44% 30.18 in 10.0 mi East 5.8 mph - N/A   Unknown
1:15 PM 78.8 °F 53.6 °F 42% 30.17 in 10.0 mi ESE 9.2 mph - N/A   Unknown
1:35 PM 78.8 °F 55.4 °F 44% 30.16 in 10.0 mi ESE 5.8 mph - N/A   Unknown
1:55 PM 78.8 °F 53.6 °F 42% 30.15 in 10.0 mi East 8.1 mph - N/A   Unknown
2:15 PM 77.0 °F 55.4 °F 47% 30.14 in 10.0 mi East 13.8 mph 18.4 mph N/A   Unknown
2:35 PM 78.8 °F 55.4 °F 44% 30.14 in 10.0 mi East 11.5 mph 17.3 mph N/A   Unknown
4:15 PM 78.8 °F 53.6 °F 42% 30.14 in 10.0 mi East 11.5 mph 18.4 mph N/A   Unknown
4:35 PM 77.0 °F 55.4 °F 47% 30.14 in 10.0 mi East 10.4 mph - N/A   Unknown
4:55 PM 77.0 °F 55.4 °F 47% 30.15 in 10.0 mi East 6.9 mph - N/A   Unknown
5:15 PM 75.2 °F 55.4 °F 50% 30.15 in 10.0 mi East 6.9 mph - N/A   Unknown
5:35 PM 73.4 °F 55.4 °F 53% 30.15 in 10.0 mi East 6.9 mph - N/A   Unknown
5:55 PM 73.4 °F 55.4 °F 53% 30.15 in 10.0 mi East 6.9 mph - N/A   Unknown
6:15 PM 71.6 °F 55.4 °F 57% 30.16 in 10.0 mi East 5.8 mph - N/A   Unknown
6:35 PM 71.6 °F 55.4 °F 57% 30.16 in 10.0 mi East 5.8 mph - N/A   Unknown
6:55 PM 71.6 °F 55.4 °F 57% 30.17 in 10.0 mi East 4.6 mph - N/A   Unknown
7:15 PM 69.8 °F 55.4 °F 60% 30.17 in 10.0 mi East 3.5 mph - N/A   Unknown
7:35 PM 69.8 °F 55.4 °F 60% 30.18 in 10.0 mi East 3.5 mph - N/A   Unknown
7:55 PM 69.8 °F 55.4 °F 60% 30.18 in 10.0 mi East 3.5 mph - N/A   Unknown
8:15 PM 69.8 °F 57.2 °F 64% 30.18 in 10.0 mi East 3.5 mph - N/A   Unknown
8:35 PM 68.0 °F 57.2 °F 68% 30.18 in 10.0 mi East 3.5 mph - N/A   Unknown
8:55 PM 68.0 °F 57.2 °F 68% 30.19 in 10.0 mi Calm Calm - N/A   Unknown
9:15 PM 68.0 °F 57.2 °F 68% 30.20 in 10.0 mi East 3.5 mph - N/A   Unknown
9:35 PM 66.2 °F 57.2 °F 73% 30.20 in 10.0 mi Calm Calm - N/A   Unknown
9:55 PM 64.4 °F 57.2 °F 77% 30.19 in 10.0 mi East 4.6 mph - N/A   Unknown
10:15 PM 66.2 °F 59.0 °F 78% 30.19 in 10.0 mi East 4.6 mph - N/A   Unknown
10:35 PM 66.2 °F 59.0 °F 78% 30.19 in 10.0 mi Calm Calm - N/A   Unknown
10:55 PM 64.4 °F 59.0 °F 83% 30.18 in 10.0 mi Calm Calm - N/A   Unknown
11:15 PM 64.4 °F 59.0 °F 83% 30.18 in 10.0 mi ESE 3.5 mph - N/A   Unknown
11:35 PM 64.4 °F 59.0 °F 83% 30.17 in 10.0 mi Calm Calm - N/A   Unknown
11:55 PM 64.4 °F 57.2 °F 77% 30.16 in 10.0 mi Calm Calm - N/A   Unknown